[[{"header":{"parameterUnit":"m.s-1","parameterCategory":1,"la1":30.2992,"la2":30.254,"lo1":-89.0895,"lo2":-89.0443,"dy":0.0025,"dx":0.0025,"nx":19,"ny":19,"refTime":"2026-03-09T03:00:00:Z","depth":0,"parameterNumber":2,"parameterNumberName":"U-component_of_WINDS"},"data":[0,0,0,-1.1787,-1.1787,-1.1773,-1.1773,-1.1765,-1.1765,0,0,0,0,0,0,0,0,0,0,0,-1.1796,-1.1797,-1.1787,-1.1787,-1.1773,-1.1773,-1.1765,-1.1765,0,0,0,0,0,0,0,0,0,0,0,-1.1796,-1.1796,-1.1797,-1.1787,-1.1773,-1.1773,-1.1765,-1.1772,0,0,0,0,0,0,0,0,0,0,-1.1784,-1.1798,-1.1796,-1.1797,-1.1787,-1.1773,-1.1773,-1.1772,-1.1772,-1.1775,0,-1.178,0,-1.1773,-1.1766,-1.1766,0,0,0,-1.1783,-1.1798,-1.179,-1.1797,-1.1787,-1.1773,-1.1778,-1.1772,-1.1771,-1.1775,-1.178,-1.1779,-1.1773,-1.1766,-1.1766,-1.1799,-1.18,0,0,-1.1783,-1.1797,-1.179,-1.179,-1.1792,-1.1779,-1.1778,-1.1771,-1.1778,-1.178,-1.1779,-1.1772,-1.1766,-1.1766,-1.1799,-1.18,0,0,0,-1.1788,-1.1798,-1.1789,-1.179,-1.1787,-1.1778,-1.1777,-1.1778,-1.1774,-1.1779,-1.1772,-1.1766,-1.1766,-1.1799,-1.1799,-1.1829,0,0,0,-1.1788,-1.1801,-1.179,-1.1798,-1.1787,-1.1783,-1.1785,-1.1775,-1.1774,-1.1772,-1.1766,-1.1766,-1.1798,-1.1799,-1.1828,-1.1841,0,0,0,-1.1795,-1.1801,-1.1801,-1.1799,-1.1793,-1.1782,-1.1778,-1.1774,-1.177,-1.1766,-1.1766,-1.1798,-1.1799,-1.1826,-1.1839,-1.1853,0,0,0,-1.1807,-1.1829,-1.1802,-1.1824,-1.1794,-1.1801,-1.1778,-1.1783,-1.1783,-1.1766,-1.1798,-1.1799,-1.1826,-1.1837,-1.1852,-1.1867,-1.1875,0,0,-1.1842,-1.1834,-1.1846,-1.1821,-1.1837,-1.1802,-1.1822,-1.1809,-1.1797,-1.1799,-1.18,-1.1828,-1.1838,-1.1853,-1.1917,-1.1924,0,0,0,-1.1862,-1.187,-1.1871,-1.1872,-1.1862,-1.1855,-1.1837,-1.1832,-1.1834,-1.1801,-1.1837,-1.1843,-1.1851,-1.1858,-1.1863,-1.1869,-1.1803,-1.1803,-1.1803,-1.1932,-1.1914,-1.1932,-1.1912,-1.1913,-1.1894,-1.1893,-1.1883,-1.1865,-1.1874,-1.1874,-1.1916,-1.1924,-1.1928,-1.1934,-1.1882,-1.1882,-1.1882,-1.1882,-1.1982,-1.199,-1.1966,-1.1974,-1.1955,-1.1962,-1.1945,-1.1932,-1.1935,-1.1914,-1.192,-1.1898,-1.1936,-1.194,-1.1884,-1.1884,-1.1884,-1.1884,-1.1883,-1.2025,-1.2026,-1.2019,-1.2017,-1.2017,-1.1997,-1.2001,-1.1984,-1.1967,-1.1973,-1.1971,-1.1971,-1.1967,-1.1974,-1.1974,-1.1974,-1.1974,-1.1974,-1.1974,-1.2072,-1.2063,-1.2069,-1.206,-1.2057,-1.2052,-1.2033,-1.203,-1.2022,-1.2009,-1.2009,-1.1989,-1.1943,-1.1932,-1.1976,-1.1976,-1.1976,-1.1976,-1.1975,-1.2128,-1.2112,-1.2121,-1.2118,-1.2106,-1.2107,-1.2084,-1.2079,-1.2074,-1.2077,-1.2056,-1.2025,-1.2015,-1.2011,-1.2001,-1.2061,-1.2061,-1.2061,-1.2061,-1.2163,-1.2157,-1.2161,-1.2157,-1.2152,-1.2133,-1.2142,-1.2128,-1.211,-1.2106,-1.2095,-1.208,-1.2076,-1.2068,-1.2063,-1.2053,-1.2125,-1.2125,-1.2125,-1.2196,-1.2188,-1.22,-1.2182,-1.2171,-1.2161,-1.2169,-1.2166,-1.2143,-1.2127,-1.2101,-1.2099,-1.2075,-1.2069,-1.2052,-1.2043,-1.2025,0,0]},{"header":{"parameterUnit":"m.s-1","parameterCategory":1,"la1":30.2992,"la2":30.254,"lo1":-89.0895,"lo2":-89.0443,"dy":0.0025,"dx":0.0025,"nx":19,"ny":19,"refTime":"2026-03-09T03:00:00:Z","depth":0,"parameterNumber":3,"parameterNumberName":"V-component_of_WINDS"},"data":[0,0,0,3.1361,3.1362,3.1416,3.1416,3.1481,3.1481,0,0,0,0,0,0,0,0,0,0,0,3.134,3.134,3.1361,3.1362,3.1416,3.1416,3.1481,3.1481,0,0,0,0,0,0,0,0,0,0,0,3.134,3.134,3.134,3.1362,3.1416,3.1416,3.1481,3.1442,0,0,0,0,0,0,0,0,0,0,3.139,3.1365,3.134,3.134,3.1362,3.1416,3.1416,3.144,3.1444,3.1454,0,3.1459,0,3.1472,3.1485,3.1485,0,0,0,3.1365,3.1362,3.1381,3.134,3.1363,3.1416,3.1393,3.1442,3.1447,3.1459,3.146,3.1463,3.1473,3.1486,3.1486,3.1528,3.1528,0,0,3.1362,3.1347,3.1378,3.1384,3.1374,3.1391,3.1394,3.1445,3.1446,3.1461,3.1465,3.1474,3.1486,3.1486,3.1528,3.1528,0,0,0,3.1351,3.1345,3.1363,3.1381,3.1391,3.1392,3.1396,3.1444,3.1451,3.1465,3.1474,3.1486,3.1487,3.1528,3.1528,3.1515,0,0,0,3.135,3.1338,3.1361,3.1352,3.139,3.1418,3.1393,3.1447,3.1454,3.1474,3.1486,3.1488,3.1528,3.1528,3.1516,3.1511,0,0,0,3.1338,3.1337,3.1343,3.1351,3.1374,3.1417,3.1428,3.1449,3.1459,3.1486,3.1488,3.1528,3.1528,3.1516,3.1512,3.152,0,0,0,3.1321,3.1329,3.1343,3.1356,3.1374,3.1409,3.1427,3.1454,3.1475,3.1487,3.1528,3.1528,3.1516,3.1512,3.152,3.1523,3.1523,0,0,3.1323,3.1329,3.1338,3.1352,3.1381,3.1402,3.143,3.1463,3.148,3.1512,3.1513,3.1516,3.1512,3.152,3.1527,3.1527,0,0,0,3.1334,3.134,3.1352,3.1371,3.1398,3.1422,3.1453,3.1467,3.1495,3.1492,3.1521,3.1519,3.1524,3.1527,3.1526,3.1533,3.1529,3.1529,3.1529,3.1313,3.1336,3.1354,3.1384,3.1403,3.1438,3.1457,3.1481,3.1496,3.1503,3.1512,3.1514,3.1516,3.1516,3.1523,3.1516,3.1516,3.1516,3.1516,3.1319,3.1332,3.1357,3.1382,3.1407,3.143,3.1466,3.1477,3.1503,3.1508,3.1514,3.1517,3.1515,3.1522,3.1515,3.1515,3.1515,3.1515,3.1515,3.1308,3.1318,3.1336,3.137,3.1394,3.1425,3.1451,3.1472,3.1492,3.1498,3.1512,3.1512,3.1516,3.1504,3.1504,3.1504,3.1504,3.1504,3.1504,3.1289,3.1309,3.1327,3.136,3.1378,3.1404,3.1443,3.1461,3.1488,3.1502,3.1502,3.1519,3.1511,3.1508,3.1504,3.1504,3.1504,3.1504,3.1504,3.1285,3.1291,3.1318,3.1337,3.1379,3.1404,3.1433,3.147,3.1489,3.1502,3.1519,3.1509,3.1516,3.1517,3.1515,3.1513,3.1513,3.1513,3.1513,3.1276,3.1283,3.1318,3.1347,3.1378,3.1408,3.1442,3.1474,3.1508,3.1522,3.1526,3.1526,3.1525,3.1533,3.1533,3.1532,3.1534,3.1534,3.1534,3.1276,3.1288,3.1311,3.1344,3.1381,3.1413,3.1446,3.148,3.152,3.1535,3.1534,3.1533,3.1533,3.1532,3.1545,3.1544,3.1542,0,0]}]]